Location: Bouchavesnes-Bergen
(49.9859°N, 2.9203°E)
Time: 05:15:13
(UTC+00:00)

SL-27 R/B - Pass Details

Date: 09 March 2021
Orbit: 418 x 468 km, 74.7° (Epoch: 11 April)

Event Time Altitude Azimuth Distance (km) Brightness Sun altitude
Exits shadow 04:27:51 17° 325° (NW) 1,278 4.5 -17.9°
Drops below altitude 10° 04:29:32 10° 352° (N) 1,639 5.3 -17.6°
Sets 04:32:11 0° 12° (NNE) 2,522 6.6 -17.2°
